OneWeb SL0634

operational
NORAD ID: 56075 Int'l Des: 2023-043 Owner: ONEWEBN Country: UK Constellation: oneweb
LEOCIRCULARPOLARONEWEB_TYPE

关于 OneWeb SL0634

正在加载描述...

实时位置

正在加载3D地球...

即将过境

高度历史

Altitude vs Time

uPlot chart will show altitude changes over time

两行轨道根数

1 56075U 23043AF 25258.88616344 -.00000191 00000-0 -54270-3 0 9991
2 56075 87.9035 313.9670 0001987 107.0337 253.1012 13.15549529120339
Epoch: Sep 15, 2025 • Age: 14 hours

当前状态

高度 1221.6 km
速度 7.24 km/s
星下点 -47.76°S, 141.44°E
发射日期 Mar 26, 2023
运行时间 2.4 years
类型 internet

技术详情

分类 Payload
质量 148.00 kg
干质量 140.00 kg
总质量 148.00 kg
长度 1.30 m
直径 1.00 m
跨度 5.00 m
形状 Trapezoid+2 pan
制造商 ONEWUS
平台类型 ARROW
阶段状态 In Orbit
所有者/国家 ONEWEBN/UK

大型星座

Loading constellations...